カタログに戻る

COSMOS 778

運用中軍事PO
NORAD 8419·PAYLOAD·🇷🇺 Russia

打ち上げ Nov 4, 1975 から Plesetsk Cosmodrome

Loading…

次のパス (今後24時間)

TLE

最新Source: Space-Track

元期: Sep 14, 2026, 08:49 UTC

1 08419U 75103A   26257.36804464  .00000031  00000-0  16567-4 0  9998
2 08419  82.9724 228.2279 0021119 330.2032 194.1229 13.74856325550849

AllMySatでCOSMOS 778をリアルタイム追跡

Download on the App Store